This demonstration page uses our WeatherBlox Daily Observations layout. Learn more.

Left ArrowRight Arrow

Hourly Observations for August 12, 2022

Temp ( °F °C ) Dew Point ( °F °C ) Humidity (%) Winds ( mph kmh ) Pressure ( in mb ) Visibility ( mi km ) Precip ( " mm )
12:15 am 00:15 Clear 64 17.8 57 14.1 79 79 SSE 8 13 30.07 1018 10 16 0.00 0.00
12:35 am 00:35 Clear 65 18.1 57 13.7 75 75 SSE 8 13 30.08 1019 10 16 0.00 0.00
12:55 am 00:55 Clear 64 17.8 56 13.3 75 75 SSE 7 11 30.09 1019 10 16 0.00 0.00
1:15 am 01:15 Clear 63 17.3 56 13.2 77 77 SSE 7 11 30.09 1019 10 16 0.00 0.00
1:35 am 01:35 Clear 63 17.3 56 13.1 76 76 SSE 8 13 30.09 1019 10 16 0.00 0.00
1:55 am 01:55 Clear 63 17.1 55 13 77 77 SSE 8 13 30.08 1019 10 16 0.00 0.00
2:15 am 02:15 Clear 61 16.1 56 13.2 83 83 SSE 8 13 30.09 1019 10 16 0.00 0.00
2:35 am 02:35 Clear 61 16.2 55 13 81 81 SSE 8 13 30.09 1019 10 16 0.00 0.00
2:55 am 02:55 Clear 61 16 55 13 82 82 SSE 8 13 30.09 1019 10 16 0.00 0.00
3:15 am 03:15 Clear 60 15.7 55 13 84 84 S 6 9 30.08 1019 10 16 0.00 0.00
3:35 am 03:35 Clear 59 15 55 13 88 88 S 6 9 30.09 1019 10 16 0.00 0.00
3:55 am 03:55 Clear 59 15 55 12.7 86 86 S 7 11 30.09 1019 10 16 0.00 0.00
4:15 am 04:15 Clear 58 14.7 55 12.8 88 88 S 7 11 30.09 1019 10 16 0.00 0.00
4:35 am 04:35 Clear 58 14.7 55 12.8 88 88 SSE 6 9 30.09 1019 10 16 0.00 0.00
4:55 am 04:55 Clear 58 14.2 55 12.6 90 90 SSE 6 9 30.10 1019 10 16 0.00 0.00
5:15 am 05:15 Clear 58 14.2 55 12.6 90 90 S 3 6 30.10 1019 10 16 0.00 0.00
5:35 am 05:35 Clear 57 14 55 12.5 91 91 S 7 11 30.11 1020 10 16 0.00 0.00
5:55 am 05:55 Clear 58 14.6 55 12.7 88 88 SSW 8 13 30.10 1019 10 16 0.00 0.00
6:15 am 06:15 Clear 61 16.1 55 12.9 81 81 SSW 8 13 30.09 1019 10 16 0.00 0.00
6:35 am 06:35 Clear 61 16.1 55 12.6 80 80 SSW 7 11 30.09 1019 10 16 0.00 0.00
6:55 am 06:55 Sunny 60 15.8 55 12.6 81 81 S 5 7 30.09 1019 10 16 0.00 0.00
7:15 am 07:15 Sunny 59 15.1 55 12.8 86 86 SSW 5 7 30.10 1019 10 16 0.00 0.00
7:35 am 07:35 Sunny 62 16.7 55 13 79 79 SSW 7 11 30.08 1019 10 16 0.00 0.00
7:55 am 07:55 Sunny 64 18 55 13 73 73 SSW 8 13 30.07 1018 10 16 0.00 0.00
8:15 am 08:15 Sunny 66 18.7 55 13 69 69 SSW 8 13 30.07 1018 10 16 0.00 0.00
8:35 am 08:35 Sunny 68 19.9 56 13.2 65 65 SSW 8 13 30.05 1018 10 16 0.00 0.00
8:55 am 08:55 Sunny 70 21 55 12.9 60 60 SSW 10 17 30.04 1017 10 16 0.00 0.00
9:15 am 09:15 Sunny 71 21.7 55 12.9 57 57 SSW 9 15 30.03 1017 10 16 0.00 0.00
9:35 am 09:35 Sunny 73 22.7 56 13.3 55 55 SSW 9 15 30.02 1017 10 16 0.00 0.00
9:55 am 09:55 Sunny 75 24 57 13.8 53 53 SSW 10 17 30.01 1016 10 16 0.00 0.00
10:15 am 10:15 Sunny 77 25 57 13.8 50 50 SSW 13 20 30.01 1016 10 16 0.00 0.00
10:35 am 10:35 Sunny 78 25.4 56 13.1 46 46 SW 15 24 30.00 1016 10 16 0.00 0.00
10:55 am 10:55 Sunny 80 26.6 57 14 46 46 SSW 13 20 29.99 1016 10 16 0.00 0.00
11:15 am 11:15 Sunny 81 27.1 57 14.1 45 45 SSW 14 22 29.98 1015 10 16 0.00 0.00
11:35 am 11:35 Sunny 82 27.9 59 14.8 45 45 SW 15 24 29.97 1015 10 16 0.00 0.00
11:55 am 11:55 Sunny 84 29 60 15.4 44 44 S 14 22 29.95 1014 10 16 0.00 0.00
12:15 pm 12:15 Sunny 85 29.4 60 15.8 44 44 S 13 20 29.95 1014 10 16 0.00 0.00
12:35 pm 12:35 Sunny 86 29.9 60 15.4 41 41 SSW 12 19 29.95 1014 10 16 0.00 0.00
12:55 pm 12:55 Sunny 87 30.6 61 16 41 41 SSW 10 17 29.93 1014 10 16 0.00 0.00
1:15 pm 13:15 Sunny 87 30.5 61 16.2 42 42 SSW 10 17 29.92 1013 10 16 0.00 0.00
1:35 pm 13:35 Sunny 89 31.4 63 17 42 42 S 9 15 29.91 1013 10 16 0.00 0.00
1:55 pm 13:55 Sunny 90 32 62 16.6 40 40 SSE 10 17 29.91 1013 10 16 0.00 0.00
2:15 pm 14:15 Sunny 90 32.3 62 16.9 40 40 S 10 17 29.90 1013 10 16 0.00 0.00
2:35 pm 14:35 Sunny 91 32.5 62 16.4 38 38 SSE 9 15 29.90 1012 10 16 0.00 0.00
2:55 pm 14:55 Sunny 91 33 61 16.1 36 36 SSE 9 15 29.89 1012 10 16 0.00 0.00
3:15 pm 15:15 Sunny 91 32.6 62 16.7 39 39 SSE 8 13 29.89 1012 10 16 0.00 0.00
3:35 pm 15:35 Sunny 92 33.1 63 17.1 39 39 SSE 9 15 29.87 1012 10 16 0.00 0.00
3:55 pm 15:55 Sunny 91 33 63 17.3 39 39 SSE 9 15 29.86 1011 10 16 0.00 0.00
4:15 pm 16:15 Sunny 92 33.3 63 17 38 38 SSE 12 19 29.85 1011 10 16 0.00 0.00
4:35 pm 16:35 Sunny 92 33.5 62 16.4 36 36 SSE 12 19 29.85 1011 10 16 0.00 0.00
4:55 pm 16:55 Sunny 92 33.4 62 16.5 36 36 SSE 10 17 29.85 1011 10 16 0.00 0.00
5:15 pm 17:15 Sunny 92 33.2 61 16.3 36 36 SSE 8 13 29.85 1011 10 16 0.00 0.00
5:35 pm 17:35 Sunny 92 33.1 63 17.2 39 39 SSE 8 13 29.83 1010 10 16 0.00 0.00
5:55 pm 17:55 Sunny 91 32.7 63 17.1 39 39 SSE 9 15 29.84 1010 10 16 0.00 0.00
6:15 pm 18:15 Sunny 90 32.2 64 17.5 42 42 SSE 9 15 29.84 1011 10 16 0.00 0.00
6:35 pm 18:35 Sunny 89 31.6 65 18.5 46 46 SE 9 15 29.83 1010 10 16 0.00 0.00
6:55 pm 18:55 Sunny 88 31 64 17.5 45 45 SE 10 17 29.84 1010 10 16 0.00 0.00
7:15 pm 19:15 Sunny 86 30.2 64 17.7 47 47 SSE 8 13 29.84 1011 10 16 0.00 0.00
7:35 pm 19:35 Sunny 84 29.1 64 17.7 50 50 SE 7 11 29.85 1011 10 16 0.00 0.00
7:55 pm 19:55 Sunny 82 27.8 64 17.8 55 55 SE 7 11 29.86 1011 10 16 0.00 0.00
8:15 pm 20:15 Sunny 78 25.7 65 18.1 63 63 SE 6 9 29.87 1012 10 16 0.00 0.00
8:35 pm 20:35 Sunny 78 25.5 62 16.5 58 58 SE 7 11 29.87 1012 10 16 0.00 0.00
8:55 pm 20:55 Clear 75 24.1 62 16.7 63 63 SSE 8 13 29.88 1012 10 16 0.00 0.00
9:15 pm 21:15 Clear 75 23.7 60 15.6 60 60 SSE 9 15 29.89 1012 10 16 0.00 0.00
9:35 pm 21:35 Clear 75 24 58 14.5 55 55 SSE 8 13 29.89 1012 10 16 0.00 0.00
9:55 pm 21:55 Clear 76 24.5 57 13.9 52 52 SSE 8 13 29.89 1012 10 16 0.00 0.00
10:15 pm 22:15 Clear 76 24.7 56 13.3 49 49 SSE 10 17 29.89 1012 10 16 0.00 0.00
10:35 pm 22:35 Clear 76 24.5 55 13 49 49 SSE 10 17 29.89 1012 10 16 0.00 0.00
10:55 pm 22:55 Clear 75 23.9 55 13 50 50 SSE 9 15 29.89 1012 10 16 0.00 0.00
11:15 pm 23:15 Clear 74 23.5 55 13 52 52 S 10 17 29.90 1012 10 16 0.00 0.00
11:35 pm 23:35 Clear 74 23.2 55 12.6 51 51 S 13 20 29.90 1013 10 16 0.00 0.00
11:55 pm 23:55 Clear 73 23 55 12.6 52 52 S 9 15 29.91 1013 10 16 0.00 0.00

Powered by AerisWeather